Home   Weather   Monterrey   Past weeks

Flag for Mexico Past Weather in Monterrey, Nuevo León, Mexico — Yesterday and Last 2 Weeks

61 °F

Passing clouds.

Feels Like: 61 °F
Forecast: 57 / 81 °F
Wind: No wind

Location: Aerop. Internacional Monterrey - N. L.

Current Time: Oct 28, 2016 at 7:31:40 AM

Latest Report: Oct 28, 2016 at 6:40 AM

Visibility: 6 mi

Pressure: 30.19 "Hg (28.31 "Hg at 545m altitude)

Humidity: 94%

Dew Point: 59 °F

Location of MonterreyLocation

Past Weather in Monterrey — Graph


Monterrey Temperature Yesterday

Maximum temperature yesterday: 82 °F (at 1:40 PM)
Minimum temperature yesterday: 64 °F (at 7:40 AM)
Average temperature yesterday: 74 °F

High & Low Weather Summary for the Past Weeks

High90 °F (Oct 17, 3:40 PM)100% (Oct 13, 5:40 AM)30.35 "Hg (Oct 13, 5:40 AM)
Low54 °F (Oct 22, 6:40 AM)27% (Oct 17, 4:40 PM)29.84 "Hg (Oct 17, 5:40 PM)
Average75 °F63%30.09 "Hg
* Reported Oct 13 5:40 AM — Oct 28 5:57 AM, Monterrey, Weather by CustomWeather, © 2016

Note: Actual official high and low records may vary slightly from our data, if they occured in-between our weather recording intervals... More about our weather records


Monterrey Weather History for the Previous 24 Hours

Scroll right to see more
Time TempWeatherWind HumidityBarometerVisibility
5:57 AM
Fri, Oct 28
61 °FClear.2 mph88%30.19 "Hg6 mi
11:44 PM
Thu, Oct 27
68 °FClear.No wind60%30.22 "Hg10 mi
10:43 PM72 °FClear.5 mph50%30.22 "Hg10 mi
9:40 PM73 °FPassing clouds.5 mph44%30.22 "Hg10 mi
8:40 PM75 °FPassing clouds.5 mph44%30.20 "Hg10 mi
7:40 PM77 °FPassing clouds.5 mph44%30.17 "Hg15 mi
5:40 PM82 °FPartly sunny.9 mph35%30.15 "Hg15 mi
4:40 PM79 °FPartly sunny.6 mph51%30.16 "Hg15 mi
3:40 PM79 °FPartly sunny.8 mph51%30.16 "Hg15 mi
2:40 PM81 °FBroken clouds.8 mph45%30.18 "Hg15 mi
1:40 PM82 °FBroken clouds.6 mph48%30.22 "Hg15 mi
12:40 PM79 °FBroken clouds.No wind54%30.25 "Hg12 mi
11:40 AM77 °FBroken clouds.3 mph61%30.27 "Hg12 mi
10:40 AM75 °FBroken clouds.6 mph65%30.26 "Hg12 mi
9:40 AM70 °FPartly sunny.5 mph83%30.25 "Hg12 mi
8:40 AM64 °FPartly sunny.3 mph100%30.22 "Hg15 mi
7:40 AM64 °FPassing clouds.2 mph94%30.20 "Hg8 mi
Weather by CustomWeather, © 2016

See weather overviewHow to use our weather pages